TimeHST,TemperatureF,Dew PointF,Humidity,Sea Level PressureIn,VisibilityMPH,Wind Direction,Wind SpeedMPH,Gust SpeedMPH,PrecipitationIn,Events,Conditions,WindDirDegrees,DateUTC
12:53 AM,73.9,68.0,82,29.92,10.0,NNE,24.2,29.9,0.01,,Overcast,30,2013-11-10 10:53:00
1:53 AM,73.0,66.9,81,29.93,10.0,NNE,23.0,35.7,0.00,,Overcast,30,2013-11-10 11:53:00
2:53 AM,73.0,66.9,81,29.91,10.0,NNE,20.7,27.6,0.04,,Mostly Cloudy,30,2013-11-10 12:53:00
3:53 AM,73.0,64.9,76,29.90,10.0,NE,23.0,31.1,N/A,,Mostly Cloudy,40,2013-11-10 13:53:00
4:53 AM,73.9,64.9,73,29.91,10.0,NE,21.9,-,N/A,,Mostly Cloudy,40,2013-11-10 14:53:00
5:53 AM,73.9,64.9,73,29.92,10.0,NE,25.3,31.1,N/A,,Overcast,40,2013-11-10 15:53:00
6:53 AM,73.9,64.0,71,29.94,10.0,NNE,24.2,34.5,N/A,,Mostly Cloudy,30,2013-11-10 16:53:00
7:53 AM,75.0,64.0,69,29.96,10.0,NNE,21.9,32.2,N/A,,Partly Cloudy,30,2013-11-10 17:53:00
8:53 AM,75.9,66.0,71,29.97,10.0,NNE,23.0,31.1,N/A,,Mostly Cloudy,30,2013-11-10 18:53:00
9:53 AM,75.9,64.9,69,29.98,10.0,NE,26.5,33.4,N/A,,Mostly Cloudy,40,2013-11-10 19:53:00
10:53 AM,75.0,68.0,79,29.98,5.0,NE,27.6,33.4,0.06,Rain,Light Rain,40,2013-11-10 20:53:00
11:53 AM,75.0,66.0,73,29.96,4.0,NE,34.5,42.6,0.00,,Haze,40,2013-11-10 21:53:00
12:00 PM,71.6,66.2,83,29.96,4.0,NE,27.6,42.6,0.09,Rain,Rain,40,2013-11-10 22:00:00
12:16 PM,73.4,66.2,78,29.96,4.0,NNE,28.8,36.8,0.09,Rain,Rain,30,2013-11-10 22:16:00
12:53 PM,75.9,66.0,71,29.94,4.0,NNE,27.6,35.7,0.09,Rain,Rain,30,2013-11-10 22:53:00
1:53 PM,75.9,64.9,69,29.92,9.0,NNE,27.6,35.7,0.00,,Overcast,30,2013-11-10 23:53:00
2:53 PM,73.0,64.9,76,29.92,7.0,NNE,27.6,34.5,0.00,Rain,Light Rain,30,2013-11-11 00:53:00
3:53 PM,75.0,64.9,71,29.93,9.0,NNE,25.3,34.5,0.00,Rain,Light Rain,30,2013-11-11 01:53:00
4:33 PM,71.6,66.2,83,29.95,2.5,NE,25.3,35.7,0.04,Rain,Heavy Rain,40,2013-11-11 02:33:00
4:43 PM,73.4,66.2,78,29.95,9.0,NE,24.2,35.7,0.04,,Overcast,50,2013-11-11 02:43:00
4:53 PM,73.0,64.0,73,29.94,10.0,NE,26.5,34.5,0.04,,Overcast,40,2013-11-11 02:53:00
5:53 PM,73.0,64.0,73,29.96,8.0,NE,29.9,35.7,N/A,,Overcast,40,2013-11-11 03:53:00
6:53 PM,73.9,63.0,68,29.99,10.0,NE,27.6,33.4,N/A,,Overcast,40,2013-11-11 04:53:00
7:53 PM,73.9,60.1,62,30.01,10.0,NE,27.6,34.5,N/A,,Overcast,40,2013-11-11 05:53:00
8:53 PM,73.9,60.1,62,30.03,10.0,NE,25.3,33.4,N/A,,Overcast,40,2013-11-11 06:53:00
9:53 PM,73.0,59.0,61,30.03,10.0,NNE,24.2,33.4,N/A,,Mostly Cloudy,30,2013-11-11 07:53:00
10:53 PM,73.0,57.9,59,30.04,10.0,NE,23.0,32.2,N/A,,Mostly Cloudy,40,2013-11-11 08:53:00
11:53 PM,73.9,55.9,53,30.03,10.0,NNE,23.0,31.1,N/A,,Overcast,30,2013-11-11 09:53:00